Elkins, WV

8:22 PM EST on February 05, 2016 (GMT -0500)
Elkins-Randolph County

Weather History for KEKN - April, 2014

Change the Weather History Date:

Wednesday, April 30, 2014

  Actual Average Record
Temperature  
Mean Temperature 65 °F 54 °F  
Max Temperature 74 °F 67 °F 87 °F (1899)
Min Temperature 55 °F 41 °F 24 °F (1977)
Degree Days  
Heating Degree Days 0 11  
Month to date heating degree days 387 463  
Since 1 July heating degree days 5807 5563  
Cooling Degree Days 0 0  
Month to date cooling degree days 2 3  
Year to date cooling degree days 2 3  
Growing Degree Days 14 (Base 50)    
Moisture  
Dew Point 53 °F    
Average Humidity 71    
Maximum Humidity 93    
Minimum Humidity 49    
Precipitation  
Precipitation 0.36 in 0.13 in 1.90 in (1966)
Month to date precipitation 1.94 3.80  
Year to date precipitation 11.39 14.09  
Snow  
Snow 0.00 in - - ()
Month to date snowfall 0.2  
Since 1 September snowfall 92.3  
Snow Depth 0.00 in    
Sea Level Pressure  
Sea Level Pressure 29.89 in    
Wind  
Wind Speed 9 mph (SSE)    
Max Wind Speed 21 mph    
Max Gust Speed 33 mph    
Visibility 9 miles    
Events Rain    
T = Trace of Precipitation, MM = Missing Value Source: NWS Daily Summary

Daily Weather History Graph

Daily Weather History Graph

Search for Another Location

Airport or City:

Trip Planner

Search our weather history database for the weather conditions in past years. The results will help you decide how hot, cold, wet, or windy it might be!

Date:

Astronomy

Apr. 30, 2014 Rise Set
Actual Time 6:22 AM EDT 8:11 PM EDT
Civil Twilight 5:54 AM EDT 8:39 PM EDT
Nautical Twilight 5:19 AM EDT 9:14 PM EDT
Astronomical Twilight 4:42 AM EDT 9:52 PM EDT
Moon 7:23 AM EDT (4/30) 9:47 PM EDT (4/30)
Length of Visible Light 14h 45m
Length of Day
13h 48m
New Moon, 2% of the Moon is Illuminated
Apr 30
New Moon
May 6
First Quarter
May 14
Full
May 21
Last Quarter
May 28
New

Hourly Weather History & Observations

Time (EDT) Temp. Dew Point Humidity Pressure Visibility Wind Dir Wind Speed Gust Speed Precip Events Conditions
12:58 AM 55.9 °F 48.0 °F 75% 30.00 in 10.0 mi SE 8.1 mph - N/A   Scattered Clouds
1:51 AM 55.9 °F 48.0 °F 75% 29.98 in 10.0 mi Variable 5.8 mph - N/A   Clear
2:51 AM 55.9 °F 48.9 °F 77% 29.96 in 10.0 mi ESE 4.6 mph - N/A   Partly Cloudy
3:51 AM 61.0 °F 51.1 °F 70% 29.94 in 10.0 mi SSE 12.7 mph - N/A   Overcast
4:51 AM 60.8 °F 51.8 °F 72% 29.94 in 10.0 mi SE 12.7 mph - N/A   Overcast
5:51 AM 61.0 °F 51.1 °F 70% 29.94 in 10.0 mi SSE 9.2 mph 18.4 mph N/A   Scattered Clouds
6:51 AM 60.1 °F 51.1 °F 72% 29.96 in 10.0 mi SE 12.7 mph - N/A   Clear
7:51 AM 61.0 °F 51.1 °F 70% 29.94 in 10.0 mi SE 6.9 mph - N/A   Partly Cloudy
8:51 AM 62.1 °F 54.0 °F 75% 29.93 in 10.0 mi Variable 6.9 mph - 0.00 in Rain Light Rain
9:51 AM 61.0 °F 53.1 °F 75% 29.92 in 10.0 mi SE 6.9 mph - 0.02 in   Overcast
10:51 AM 64.4 °F 53.6 °F 68% 29.91 in 10.0 mi SE 11.5 mph 21.9 mph N/A   Mostly Cloudy
11:51 AM 66.9 °F 55.0 °F 66% 29.90 in 10.0 mi SSE 12.7 mph 21.9 mph N/A   Overcast
12:51 PM 71.1 °F 55.0 °F 57% 29.87 in 10.0 mi South 6.9 mph - N/A   Mostly Cloudy
1:51 PM 72.0 °F 55.0 °F 55% 29.85 in 10.0 mi SSW 11.5 mph 19.6 mph N/A   Overcast
2:51 PM 73.0 °F 54.0 °F 51% 29.82 in 10.0 mi SSW 13.8 mph 20.7 mph N/A   Partly Cloudy
3:51 PM 73.9 °F 54.0 °F 50% 29.79 in 10.0 mi South 8.1 mph - N/A   Mostly Cloudy
4:51 PM 72.0 °F 53.1 °F 51% 29.79 in 10.0 mi South 11.5 mph 19.6 mph N/A   Mostly Cloudy
5:51 PM 73.0 °F 55.0 °F 53% 29.79 in 10.0 mi SSE 10.4 mph 19.6 mph N/A   Partly Cloudy
6:51 PM 71.6 °F 55.4 °F 57% 29.79 in 10.0 mi SSE 16.1 mph 20.7 mph N/A   Scattered Clouds
7:51 PM 68.0 °F 55.9 °F 65% 29.81 in 10.0 mi WNW 8.1 mph - N/A   Overcast
8:20 PM 61.0 °F 55.9 °F 83% 29.86 in 2.0 mi NW 11.5 mph 24.2 mph 0.13 in Rain Heavy Rain
8:28 PM 60.1 °F 55.0 °F 83% 29.86 in 5.0 mi NW 15.0 mph 21.9 mph 0.15 in Rain Light Rain
8:51 PM 60.1 °F 54.0 °F 80% 29.87 in 10.0 mi Variable 6.9 mph - 0.15 in   Overcast
9:20 PM 59.0 °F 54.0 °F 83% 29.90 in 2.5 mi North 5.8 mph - 0.04 in Rain Heavy Rain
9:30 PM 57.0 °F 53.1 °F 87% 29.91 in 3.0 mi NNE 3.5 mph - 0.10 in Rain Rain
9:51 PM 57.0 °F 54.0 °F 89% 29.91 in 6.0 mi Calm Calm - 0.12 in Rain Light Rain
10:13 PM 57.0 °F 54.0 °F 89% 29.94 in 10.0 mi Calm Calm - 0.01 in   Overcast
10:51 PM 57.0 °F 53.1 °F 87% 29.93 in 5.0 mi South 4.6 mph - 0.05 in Rain Light Rain
11:17 PM 57.0 °F 53.1 °F 87% 29.92 in 10.0 mi Calm Calm - 0.01 in Rain Light Rain
11:51 PM 55.9 °F 53.1 °F 90% 29.91 in 10.0 mi Calm Calm - 0.01 in Rain Light Rain